Home > Weather > Poland > Opole > Past weeks

Flag for Poland Weather past 2 weeks in Opole, Poland

41 °F

Passing clouds.

Feels Like: 34 °F
Forecast: 39 / 48 °F
Wind: 13 mph from Northwest

Location: Wroclaw Ii

Current Time: Dec 1, 2015 at 10:14:19 PM

Latest Report: Dec 1, 2015 at 9:30 PM

Visibility: N/A

Pressure: 30.21 "Hg

Humidity: 81%

Dew point: 36 °F

Location of OpoleLocation

Historic Weather in Opole — Graph


Opole temperature yesterday

Maximum temperature yesterday: 50 °F (at 3:30 AM)
Minimum temperature yesterday: 39 °F (at 8:30 PM)
Average temperature yesterday: 45 °F

Past Weeks' High & Low Weather Summary

High61 °F (Nov 18, 6:00 AM)94% (Nov 16, 11:30 PM)30.27 "Hg (Nov 16, 11:30 PM)
Low25 °F (Nov 23, 4:30 AM)54% (Nov 30, 11:30 AM)29.39 "Hg (Nov 21, 4:00 AM)
Average42 °F80%29.85 "Hg
* Reported Nov 16 9:00 PM — Dec 1 9:00 PM, Opole, Weather by CustomWeather, © 2015

Note: Actual official high and low records may vary slightly from our data, if they occured in-between our weather recording intervals... More about our weather records


Opole weather history for previous 24 hours

Time TempWeatherWind HumidityBarometerVisibility
9:00 PM
Tue, Dec 1
41 °FPassing clouds.10 mph81%30.21 "HgN/A
8:30 PM43 °FPassing clouds.12 mph76%30.21 "HgN/A
8:00 PM43 °FPassing clouds.14 mph76%30.18 "HgN/A
7:30 PM43 °FPassing clouds.15 mph76%30.18 "HgN/A
7:00 PM43 °FPassing clouds.12 mph76%30.18 "HgN/A
6:30 PM43 °FPassing clouds.13 mph76%30.15 "HgN/A
6:00 PM43 °FPassing clouds.14 mph76%30.15 "HgN/A
5:30 PM45 °FPassing clouds.13 mph71%30.15 "HgN/A
5:00 PM45 °FPassing clouds.13 mph71%30.12 "HgN/A
4:30 PM45 °FPassing clouds.16 mph71%30.12 "HgN/A
4:00 PM45 °FPassing clouds.14 mph71%30.09 "HgN/A
3:30 PM46 °FPartly sunny.15 mph66%30.09 "HgN/A
3:00 PM46 °FPartly sunny.21 mph66%30.09 "HgN/A
2:30 PM46 °FPartly sunny.23 mph66%30.09 "HgN/A
2:00 PM46 °FPartly sunny.16 mph66%30.07 "HgN/A
1:30 PM46 °FBroken clouds.18 mph66%30.07 "HgN/A
1:00 PM46 °FPartly sunny.15 mph71%30.07 "HgN/A
12:30 PM45 °FPartly sunny.17 mph76%30.07 "HgN/A
12:00 PM45 °FPartly sunny.17 mph76%30.07 "HgN/A
11:30 AM45 °FPartly sunny.20 mph76%30.04 "HgN/A
11:00 AM45 °FScattered clouds.18 mph76%30.04 "HgN/A
10:30 AM45 °FScattered clouds.22 mph76%30.01 "HgN/A
10:00 AM45 °FPassing clouds.21 mph76%30.01 "HgN/A
9:00 AM45 °FPartly sunny.24 mph76%29.98 "HgN/A
8:30 AM43 °FPartly sunny.21 mph81%29.98 "HgN/A
8:00 AM43 °FPartly sunny.22 mph81%29.95 "HgN/A
7:00 AM45 °FPassing clouds.20 mph81%29.89 "HgN/A
6:30 AM45 °FPassing clouds.25 mph81%29.86 "HgN/A
6:00 AM46 °FPassing clouds.24 mph87%29.83 "HgN/A
5:30 AM50 °FLight rain. Passing clouds.32 mph82%29.77 "HgN/A
5:00 AM52 °FLight rain. Passing clouds.26 mph88%29.71 "HgN/A
4:30 AM52 °FLight rain. Passing clouds.25 mph82%29.68 "HgN/A
4:00 AM52 °FLight rain. Passing clouds.23 mph82%29.65 "HgN/A
3:30 AM50 °FLight rain. Passing clouds.18 mph88%29.65 "HgN/A
3:00 AM50 °FLight rain. Passing clouds.16 mph88%29.65 "HgN/A
2:00 AM48 °FLight rain. Passing clouds.10 mph87%29.68 "HgN/A
1:00 AM45 °FLight rain. Passing clouds.7 mph87%29.71 "HgN/A
12:30 AM43 °FLight rain. Passing clouds.6 mph87%29.71 "HgN/A
12:00 AM41 °FLight rain. Passing clouds.2 mph87%29.74 "HgN/A
11:30 PM
Mon, Nov 30
41 °FLight rain. Passing clouds.6 mph87%29.74 "HgN/A
11:00 PM39 °FRain. Passing clouds.7 mph93%29.77 "Hg6 mi
10:30 PM39 °FRain. Passing clouds.5 mph87%29.80 "Hg5 mi
10:00 PM39 °FRain. Passing clouds.6 mph87%29.83 "HgN/A
Weather by CustomWeather, © 2015

See weather overviewHow to use our weather pages